Snowfall_Accumulation
0.0 0.0 0.0 0.0 0.0 0.0 0.0 0.0 0.0 0.0 0.0 0.0 0.0 0.0 0.0 0.0 0.0 0.0 0.0 0.0 0.0 0.0 0.0 0.0 0.0 0.0 0.0 0.0 0.0 0.0 0.0 0.0 0.0 0.0 0.0 0.0 0.0 0.0 0.0 0.0 0.0 0.0 0.0 0.0 0.0
0.0 0.0 0.0 0.0 0.0 0.0 0.0 0.0 0.0 0.0 0.0 0.0 0.0 0.0 0.0 0.0 0.0 0.0 0.0 0.0 0.0 0.0 0.0 0.0 0.0 0.0 0.0 0.0 0.0 0.0 0.0 0.0 0.0 0.0 0.0 0.0 0.0 0.0 0.0 0.0 0.0 0.0 0.0 0.0 0.0
0.0 0.0 0.0 0.0 0.0 0.0 0.0 0.0 0.0 0.0 0.0 0.0 0.0 0.0 0.0 0.0 0.0 0.0 0.0 0.0 0.0 0.0 0.0 0.0 0.0 0.0 0.0 0.0 0.0 0.0 0.0 0.0 0.0 0.0 0.0 0.0 0.0 0.0 0.0 0.0 0.0 0.0 0.0 0.0 0.0
0.0 0.0 0.0 0.0 0.0 0.0 0.0 0.0 0.0 0.0 0.0 0.0 0.0 0.0 0.0 0.0 0.0 0.0 0.0 0.0 0.0 0.0 0.0 0.0 0.0 0.0 0.0 0.0 0.0 0.0 0.0 0.0 0.0 0.0 0.0 0.0 0.0 0.0 0.0 0.0 0.0 0.0 0.0 0.0 0.0
0.0 0.0 0.0 0.0 0.0 0.0 0.0 0.0 0.0 0.0 0.0 0.0 0.0 0.0 0.0 0.0 0.0 0.0 0.0 0.0 0.0 0.0 0.0 0.0 0.0 0.0 0.0 0.0 0.0 0.0 0.0 0.0 0.0 0.0 0.0 0.0 0.0 0.0 0.0 0.0 0.0 0.0 0.0 0.0 0.0
0.0 0.0 0.0 0.0 0.0 0.0 0.0 0.0 0.0 0.0 0.0 0.0 0.0 0.0 0.0 0.0 0.0 0.0 0.0 0.0 0.0 0.0 0.0 0.0 0.0 0.0 0.0 0.0 0.0 0.0 0.0 0.0 0.0 0.0 0.0 0.0 0.0 0.0 0.0 0.0 0.0 0.0 0.0 0.0 0.0
0.0 0.0 0.0 0.0 0.0 0.0 0.0 0.0 0.0 0.0 0.0 0.0 0.0 0.0 0.0 0.0 0.0 0.0 0.0 0.0 0.0 0.0 0.0 0.0 0.0 0.0 0.0 0.0 0.0 0.0 0.0 0.0 0.0 0.0 0.0 0.0 0.0 0.0 0.0 0.0 0.0 0.0 0.0 0.0 0.0
0.0 0.0 0.0 0.0 0.0 0.0 0.0 0.0 0.0 0.0 0.0 0.0 0.0 0.0 0.0 0.0 0.0 0.0 0.0 0.0 0.0 0.0 0.0 0.0 0.0 0.0 0.0 0.0 0.0 0.0 0.0 0.0 0.0 0.0 0.0 0.0 0.0 0.0 0.0 0.0 0.0 0.0 0.0 0.0 0.0
0.0 0.0 0.0 0.0 0.0 0.0 0.0 0.0 0.0 0.0 0.0 0.0 0.0 0.0 0.0 0.0 0.0 0.0 0.0 0.0 0.0 0.0 0.0 0.0 0.0 0.0 0.0 0.0 0.0 0.0 0.0 0.0 0.0 0.0 0.0 0.0 0.0 0.0 0.0 0.0 0.0 0.0 0.0 0.0 0.0
0.0 0.0 0.0 0.0 0.0 0.0 0.0 0.0 0.0 0.0 0.0 0.0 0.0 0.0 0.0 0.0 0.0 0.0 0.0 0.0 0.0 0.0 0.0 0.0 0.0 0.0 0.0 0.0 0.4 1.3 0.0 0.0 0.0 0.0 0.0 0.0 0.0 0.0 0.0 0.0 0.0 0.0 0.0 0.0 0.0
0.0 0.0 0.0 0.0 0.0 0.0 0.0 0.0 0.0 0.0 0.0 0.0 0.0 0.0 0.0 0.0 0.0 0.0 0.0 0.0 0.0 0.0 0.0 0.0 0.0 0.2 0.0 0.0 0.0 0.0 0.0 0.8 0.0 0.0 0.0 0.0 0.0 0.0 0.0 0.0 0.0 0.0 0.0 0.0 0.0
0.0 0.0 0.0 0.0 0.0 0.0 0.0 0.0 0.0 0.0 0.0 0.0 0.0 0.0 0.0 0.0 0.0 0.0 0.0 0.0 0.0 0.0 0.0 0.0 0.1 0.0 0.0 0.0 0.0 0.2 0.3 1.2 0.0 0.0 0.0 0.0 0.0 0.0 0.0 0.0 0.0 0.0 0.0 0.0 0.0
0.0 0.0 0.0 0.0 0.0 0.0 0.0 0.0 0.0 0.0 0.0 0.0 0.0 0.0 0.0 0.0 0.0 0.0 0.0 0.0 0.0 0.0 0.0 1.0 0.0 0.0 0.0 0.4 0.3 0.0 1.4 0.2 0.1 0.0 0.0 0.0 0.0 0.0 0.0 0.0 0.0 0.0 0.0 0.0 0.0
0.0 0.0 0.0 0.0 0.0 0.0 0.0 0.0 0.0 0.0 11.8 1.4 0.0 0.0 0.0 0.0 0.0 0.0 0.0 0.0 0.0 0.0 0.0 0.0 0.0 0.0 0.0 1.3 0.0 1.4 0.0 0.0 0.0 1.4 4.9 0.0 6.3 0.0 0.0 0.0 0.0 0.0 0.0 0.0 0.0
0.0 0.0 0.0 0.0 0.0 0.0 0.0 0.0 0.0 0.0 94.2 0.0 0.0 0.0 0.0 0.0 0.0 0.0 0.0 0.0 0.1 0.0 0.5 0.2 0.0 0.0 0.0 0.1 0.0 1.6 0.0 0.0 0.0 1.5 1.9 0.0 5.5 0.0 0.0 0.0 0.0 0.0 0.0 0.0 0.0
0.0 0.0 0.0 0.0 0.0 0.0 0.0 0.0 0.0 58.6 96.4 14.2 0.0 0.0 0.0 0.0 0.0 0.0 0.0 0.0 0.0 0.0 0.0 0.0 0.0 0.0 0.0 0.0 0.0 0.0 0.0 0.0 0.0 2.1 18.4 0.7 1.3 0.0 0.0 0.0 0.0 0.0 0.0 0.0 0.0
0.0 0.0 0.0 0.0 0.0 0.0 0.0 0.0 115.1 152.7 12.5 20.8 7.9 0.8 0.0 0.0 0.0 0.0 0.0 0.0 0.0 8.1 4.2 0.0 0.0 0.0 0.0 0.9 0.0 0.0 6.2 28.0 39.0 39.3 20.4 0.0 0.5 0.0 0.0 0.0 0.0 0.0 0.0 0.0 0.0
0.0 0.0 0.0 0.0 0.0 0.0 0.0 30.4 186.5 49.3 18.1 3.1 4.0 1.8 4.9 0.0 0.6 0.0 0.0 1.3 0.0 0.7 1.7 2.9 5.0 0.0 0.0 0.6 0.2 0.7 8.1 16.3 24.0 13.1 5.1 0.1 4.6 0.0 0.0 0.0 0.0 0.0 0.0 0.0 0.0
0.0 0.0 0.0 0.0 0.0 0.0 11.6 136.2 70.5 16.6 8.8 6.8 5.0 15.9 19.0 3.8 0.0 0.6 2.0 0.9 0.1 0.2 4.1 2.5 1.3 0.0 0.0 0.0 0.9 4.0 9.5 1.0 13.1 3.8 7.3 3.4 0.0 0.0 0.0 0.0 0.0 0.0 0.0 0.0 0.0
0.0 0.0 0.0 0.0 0.0 0.0 53.3 68.1 19.0 2.2 5.1 4.3 9.8 12.6 26.8 14.8 3.2 3.7 3.2 1.2 0.6 0.9 0.0 1.0 3.7 0.0 0.0 0.0 0.0 4.5 1.0 9.6 13.0 23.6 11.7 4.1 0.9 0.9 0.2 0.0 0.4 0.3 0.0 0.0 0.0
0.0 5.3 0.0 0.0 0.0 11.6 87.2 34.1 9.5 0.0 1.2 5.8 9.9 13.7 9.8 17.2 6.6 6.4 6.0 1.7 0.3 0.5 0.0 0.5 2.4 1.2 0.0 0.7 1.6 5.7 8.6 6.9 5.5 5.8 17.3 11.7 2.3 0.9 0.4 0.5 2.0 0.7 0.2 0.1 0.2
0.0 37.5 0.0 0.0 32.8 56.8 42.2 11.9 0.8 0.6 0.9 3.5 1.5 6.0 12.4 8.8 10.5 6.6 5.6 2.1 0.0 0.2 4.6 1.0 4.3 7.8 1.7 0.3 0.0 0.6 2.6 4.7 15.9 9.2 3.9 9.2 3.4 0.0 0.0 0.0 0.0 0.6 0.4 0.1 0.2
11.8 13.5 0.0 0.0 85.8 59.9 17.7 6.2 1.8 1.0 2.4 4.2 4.1 2.2 3.9 8.6 11.5 6.7 3.7 1.0 0.0 0.5 4.8 3.7 9.5 20.4 11.9 0.8 0.0 1.0 0.0 0.7 5.9 9.4 13.1 18.3 5.1 0.0 0.0 0.7 0.0 0.3 0.3 0.8 0.7
6.1 38.5 8.3 0.0 16.7 15.8 15.3 13.4 4.4 0.1 1.2 1.1 2.8 0.7 2.8 7.7 4.7 5.6 2.1 0.7 0.1 0.3 0.0 0.0 8.3 13.2 9.2 1.7 0.8 1.2 0.4 0.6 8.9 25.8 15.4 8.2 7.9 1.4 3.6 5.3 1.8 1.1 0.9 1.4 1.7
5.6 18.5 25.2 56.0 25.9 8.2 6.8 7.3 6.2 7.9 0.0 0.0 2.9 1.3 2.7 11.3 7.8 7.0 2.0 1.9 1.1 0.0 0.0 0.0 16.4 5.0 2.6 1.8 1.4 1.5 2.0 2.7 5.3 6.3 18.2 7.6 9.2 11.2 11.7 17.0 11.6 7.1 4.2 3.3 4.1
9.4 6.0 8.7 11.6 7.8 5.1 8.7 9.1 4.6 6.2 2.1 3.2 3.1 0.1 1.3 8.9 5.5 11.2 7.0 5.6 3.6 0.6 2.1 2.1 8.3 1.4 4.3 1.3 1.0 1.2 0.7 0.8 1.6 3.8 2.7 2.1 4.2 0.6 2.7 5.2 9.2 9.5 8.8 7.7 9.6
1.5 0.7 5.4 7.2 10.1 9.8 8.3 6.5 3.4 1.3 0.2 0.6 0.6 1.8 2.6 1.3 1.4 1.4 0.8 1.0 3.0 3.6 5.9 6.1 12.8 15.0 17.9 2.4 2.5 14.4 0.4 0.3 2.7 2.4 5.9 10.6 11.1 6.1 8.8 9.8 15.6 11.8 9.9 11.6 13.3